ONEWEB-0525 (54143 NORAD) Tracking and Keplerian Element Data

This shows tracking and keplerian element data for the satellite.

Feedback or suggestion? Click here.




ElementValue
Catalog54143
NameONEWEB-0525
Epoch Orbit130
Epoch Day13.91667824
Epoch Year2023
RAAN193.5342
Inclination87.98
Eccentricity0.0013286
Argument of Perigee28.5939
Mean Anonmoly27.3678
Mean Motion13.33021429
Decay Rate0.00049918
L11 54143U 22138AG 23013.91667824 .00049918 00000+0 10151+0 0 9992
L22 54143 87.9800 193.5342 0013286 28.5939 27.3678 13.33021429 1309



Live tracking and technical data element details for ONEWEB-0525 (NORAD 54143). ONEWEB-0525 can be tracked NOW for your location showing map with azimuth and elevation plus other details from your city location.







IsCatalogInMostPopularTable: catalog: 54143, numindb: 12
Update: records affected: 1



GetName: 54143 ONEWEB-0525

Hit Count: updated at: Fri, 27 Jan 2023 21:23:39 GMT